Group_ship,Cruise,JD_GMT,Date_DDMMYYYY,TIME_HH:MM:SS,Lat_dec_degree,Long_dec_degree,xCO2eq_ppm,xCO2a_ppm,Pres_Equi_hPa,Pres_sealevel_hPa,EqTemp_C,SST(TSG)_C,Sal(TSG)_Permil,Water_flow_l/min,Gasflow_IR_ml/min,Temp_IR_C,Pres_IR_hPa,Ship_heading_true_degree,Ship_speed_knot,Wind_dir_rel_degree,Wind_speed_rel_m/s,fCO2W@SST_uatm,Qcflag_water,fCO2a_uatm,Qcflag_air,dfCO2_uatm,Fluoro_ug/l,Wind_speed_true_m/s,Wind_dir_true_degree,Air_temp_C,Oxygen
AOML_Explorer,Ex0539E,276.057,3102005,1:21:40,26.219,-78.973,395.32,-9,1014.65,1010.78,28.81,29.28,36.15,2.03,87.27,31.23,1014.65,89,20.3,338,22.65,385.97,2,-9,9,-9,0.05,13.62,48.96,28.43,227.46
AOML_Explorer,Ex0539E,276.058,3102005,1:24:13,26.218,-78.957,395.02,-9,1014.59,1011.15,28.84,29.28,36.15,2.03,87.21,31.25,1014.59,96.7,20.4,334,23.68,385.2,2,-9,9,-9,0.05,15.13,50.9,28.43,227.57
AOML_Explorer,Ex0539E,276.06,3102005,1:26:46,26.216,-78.941,394.93,-9,1014.64,1010.89,28.83,29.28,36.152,2.06,87.33,31.26,1014.64,104.6,20.4,329,23.16,385.23,2,-9,9,-9,0.05,15.37,50.03,28.47,227.6
AOML_Explorer,Ex0539E,276.062,3102005,1:29:19,26.212,-78.926,394.75,-9,1014.53,1010.81,28.82,29.27,36.152,2.04,87.09,31.27,1014.53,105.8,20.3,330,23.16,384.99,2,-9,9,-9,0.05,15.49,51.34,28.47,227.7
AOML_Explorer,Ex0539E,276.064,3102005,1:31:52,26.208,-78.911,394.89,-9,1014.48,1011.03,28.81,29.27,36.154,2.09,87.18,31.28,1014.48,105.3,20.3,324,23.16,385.2,2,-9,9,-9,0.05,16.38,42.99,28.49,227.66
AOML_Explorer,Ex0539E,276.066,3102005,1:34:25,26.204,-78.895,395.07,-9,1014.47,1010.83,28.81,29.26,36.156,2.06,86.85,31.29,1014.47,105.5,20.4,328,23.16,385.44,2,-9,9,-9,0.05,15.64,48.97,28.52,227.69
AOML_Explorer,Ex0539E,276.067,3102005,1:36:58,26.2,-78.88,395.06,-9,1014.44,1010.68,28.81,29.26,36.16,2.04,87.01,31.3,1014.44,105.2,20.4,330,24.19,385.4,2,-9,9,-9,0.05,16.31,52.78,28.64,227.75
AOML_Explorer,Ex0539E,276.069,3102005,1:39:31,26.197,-78.864,395.05,-9,1014.68,1011.04,28.81,29.25,36.163,2.06,86.65,31.3,1014.68,105.6,20.5,327,23.68,385.32,2,-9,9,-9,0.05,16.28,48.02,28.59,227.75
AOML_Explorer,Ex0539E,276.071,3102005,1:42:04,26.193,-78.849,394.9,-9,1014.57,1011.22,28.81,29.25,36.164,2.08,86.85,31.31,1014.57,105.3,20.5,328,24.19,385.05,2,-9,9,-9,0.05,16.6,49.74,28.59,227.77
AOML_Explorer,Ex0539E,276.073,3102005,1:44:37,26.189,-78.834,394.72,-9,1014.82,1011.42,28.8,29.25,36.169,2.04,87.07,31.32,1014.82,105.5,20.5,327,21.62,385.06,2,-9,9,-9,0.05,14.36,45.11,28.54,227.92
AOML_Explorer,Ex0539E,276.074,3102005,1:47:10,26.185,-78.818,394.5,-9,1014.64,1011.23,28.8,29.24,36.169,2.07,86.7,31.33,1014.64,105.3,20.6,330,24.19,384.72,2,-9,9,-9,0.05,16.27,52.51,28.64,227.93
AOML_Explorer,Ex0539E,276.076,3102005,1:49:43,26.181,-78.803,394.61,-9,1014.79,1010.95,28.79,29.23,36.172,2.07,86.5,31.34,1014.79,105.5,20.6,326,24.19,384.89,2,-9,9,-9,0.06,16.88,47.17,28.53,227.92
AOML_Explorer,Ex0539E,276.078,3102005,1:52:16,26.178,-78.787,394.64,-9,1014.82,1011.27,28.79,29.23,36.171,2.02,86.64,31.35,1014.82,105,20.5,331,21.62,385,2,-9,9,-9,0.06,13.74,50.22,28.51,228
AOML_Explorer,Ex0539E,276.08,3102005,1:54:49,26.174,-78.771,394.75,-9,1014.68,1011.18,28.78,29.23,36.174,2.07,86.55,31.35,1014.68,105.4,20.6,337,23.68,385.04,2,-9,9,-9,0.06,14.77,62.65,28.55,227.96
AOML_Explorer,Ex0539E,276.082,3102005,1:57:22,26.17,-78.756,394.87,-9,1014.67,1011.53,28.79,29.22,36.173,2.08,86.42,31.36,1014.67,105.3,20.5,338,21.62,385.07,2,-9,9,-9,0.06,12.76,61.19,28.67,227.93
AOML_Explorer,Ex0539E,276.083,3102005,1:59:55,26.166,-78.74,395.06,-9,1014.76,1011.34,28.78,29.22,36.172,2.09,86.16,31.37,1014.76,105.4,20.6,334,23.16,385.27,2,-9,9,-9,0.06,14.68,57.43,28.63,227.88
AOML_Explorer,Ex0539E,276.095,3102005,2:16:34,26.139,-78.639,393.13,-9,1015,1011.18,28.77,29.23,36.165,2.07,86.26,31.45,1015,106.4,20.7,333,23.16,383.75,2,-9,9,-9,0.05,14.84,56.26,28.33,228.1
AOML_Explorer,Ex0539E,276.097,3102005,2:19:07,26.135,-78.623,393.19,-9,1014.9,1011.24,28.78,29.23,36.163,2.07,85.92,31.46,1014.9,106.4,20.7,332,23.16,383.73,2,-9,9,-9,0.05,14.96,55.09,28.34,227.99
AOML_Explorer,Ex0539E,276.098,3102005,2:21:40,26.131,-78.608,393.34,-9,1015.11,1011.77,28.78,29.25,36.159,2.06,85.66,31.47,1015.11,106.5,20.7,328,22.13,384.14,2,-9,9,-9,0.05,14.61,48.01,28.4,227.93
AOML_Explorer,Ex0539E,276.1,3102005,2:24:13,26.127,-78.592,393.2,-9,1014.97,1011.41,28.78,29.24,36.168,2.05,85.63,31.47,1014.97,106.4,20.7,336,23.16,383.94,2,-9,9,-9,0.05,14.42,60.77,28.38,227.99
AOML_Explorer,Ex0539E,276.102,3102005,2:26:46,26.122,-78.577,393.38,-9,1015.08,1011.26,28.79,29.24,36.162,2.07,85.96,31.47,1015.08,106.7,20.7,332,23.16,383.84,2,-9,9,-9,0.05,15.01,54.75,28.36,228.02
AOML_Explorer,Ex0539E,276.104,3102005,2:29:19,26.118,-78.561,393.6,-9,1015.15,1011.64,28.79,29.24,36.162,2.04,86.05,31.48,1015.15,106.5,20.6,331,22.13,384.17,2,-9,9,-9,0.05,14.18,52.41,28.36,228.06
AOML_Explorer,Ex0539E,276.105,3102005,2:31:52,26.114,-78.546,393.6,-9,1015.1,1011.4,28.78,29.24,36.158,2.01,86.14,31.48,1015.1,108.3,20.6,332,23.16,384.24,2,-9,9,-9,0.05,15.1,56.01,28.36,228.05
AOML_Explorer,Ex0539E,276.107,3102005,2:34:25,26.109,-78.53,393.59,-9,1015.02,1011.51,28.78,29.25,36.155,2.02,85.11,31.48,1015.02,108,20.6,327,22.65,384.34,2,-9,9,-9,0.05,15.41,47.54,28.3,228.01
AOML_Explorer,Ex0539E,276.109,3102005,2:36:58,26.105,-78.515,393.58,-9,1015.06,1011.51,28.78,29.24,36.156,2.02,85.34,31.48,1015.06,108,20.7,330,23.16,384.34,2,-9,9,-9,0.05,15.33,53.1,28.32,228.4
AOML_Explorer,Ex0539E,276.111,3102005,2:39:31,26.1,-78.499,393.52,-9,1015.12,1011.55,28.78,29.25,36.156,2.02,85.38,31.48,1015.12,106.6,20.8,336,22.13,384.25,2,-9,9,-9,0.05,13.51,58.46,28.31,228.31
AOML_Explorer,Ex0539E,276.113,3102005,2:42:04,26.096,-78.484,393.53,-9,1015.1,1011.49,28.79,29.26,36.15,2.02,85.45,31.48,1015.1,107.2,20.7,333,24.71,384.38,2,-9,9,-9,0.06,16.4,57.49,28.4,228.2
AOML_Explorer,Ex0539E,276.114,3102005,2:44:37,26.092,-78.468,393.63,-9,1014.94,1011.23,28.79,29.26,36.148,1.97,85.75,31.48,1014.94,107.1,20.9,322,24.71,384.48,2,-9,9,-9,0.05,18.05,42.86,28.4,228.1
AOML_Explorer,Ex0539E,276.116,3102005,2:47:10,26.088,-78.452,393.52,-9,1014.91,1011.39,28.79,29.29,36.151,1.99,85.56,31.48,1014.91,105.6,20.8,337,22.65,384.59,2,-9,9,-9,0.05,13.77,60.23,28.36,228.08
AOML_Explorer,Ex0539E,276.118,3102005,2:49:43,26.083,-78.436,393.41,-9,1014.85,1011.79,28.81,29.29,36.159,2.03,85.64,31.48,1014.85,106.3,21,335,22.65,384.3,2,-9,9,-9,0.05,14.07,56.5,28.35,228.07
AOML_Explorer,Ex0539E,276.12,3102005,2:52:16,26.079,-78.421,393.33,-9,1014.9,1011.08,28.83,29.27,36.151,1.98,85.69,31.47,1014.9,106.4,21,332,24.19,383.66,2,-9,9,-9,0.05,15.96,54.7,28.32,228.17
AOML_Explorer,Ex0539E,276.121,3102005,2:54:49,26.075,-78.405,393.43,-9,1014.7,1011.16,28.83,29.26,36.146,1.93,85.04,31.47,1014.7,108.8,21,332,22.65,383.55,2,-9,9,-9,0.05,14.44,55.66,28.34,228.2
AOML_Explorer,Ex0539E,276.123,3102005,2:57:22,26.07,-78.389,393.09,-9,1014.62,1011.16,28.81,29.25,36.156,1.89,85.16,31.47,1014.62,109.5,21.1,330,24.19,383.31,2,-9,9,-9,0.05,16.36,53.78,28.32,228.01
AOML_Explorer,Ex0539E,276.125,3102005,2:59:55,26.065,-78.374,392.99,-9,1014.91,1011.26,28.8,29.21,36.164,2.01,84.44,31.47,1014.91,107.6,21.1,330,23.16,382.9,2,-9,9,-9,0.06,15.46,50.06,28.35,228
AOML_Explorer,Ex0539E,276.137,3102005,3:16:34,26.034,-78.264,392.03,-9,1014.92,1011.06,28.78,29.18,36.172,1.99,84.05,31.51,1014.92,113.6,23.4,334,25.22,381.85,2,-9,9,-9,0.05,15.74,63.54,28.46,228.16
AOML_Explorer,Ex0539E,276.138,3102005,3:19:07,26.026,-78.248,392.19,-9,1014.69,1010.76,28.76,29.19,36.164,2.01,83.98,31.51,1014.69,120.2,23.6,319,24.19,382.27,2,-9,9,-9,0.05,17.42,48.68,28.34,228.23
AOML_Explorer,Ex0539E,276.14,3102005,3:21:40,26.017,-78.232,391.86,-9,1014.87,1010.82,28.75,29.2,36.172,2.03,84.38,31.52,1014.87,122.1,23.6,322,23.16,382.38,2,-9,9,-9,0.05,15.99,52.17,28.31,228.18
AOML_Explorer,Ex0539E,276.142,3102005,3:24:13,26.009,-78.216,391.64,-9,1014.89,1011.4,28.75,29.22,36.185,2.03,84.16,31.52,1014.89,122,23.7,326,23.16,382.48,2,-9,9,-9,0.05,15.08,57.85,28.41,228.1
AOML_Explorer,Ex0539E,276.144,3102005,3:26:46,26,-78.201,391.62,-9,1014.84,1011.04,28.76,29.24,36.206,2.01,83.26,31.52,1014.84,122.3,23.6,328,26.25,382.52,2,-9,9,-9,0.05,17.53,65.65,28.57,228.17
AOML_Explorer,Ex0539E,276.145,3102005,3:29:19,25.991,-78.185,392.13,-9,1014.8,1010.85,28.78,29.17,36.215,2.01,83.99,31.52,1014.8,121.3,23.5,329,24.71,381.8,2,-9,9,-9,0.05,15.84,65.09,28.48,228.09
AOML_Explorer,Ex0539E,276.147,3102005,3:31:52,25.982,-78.169,392.88,-9,1014.79,1011.08,28.79,29.15,36.156,2.04,83.9,31.52,1014.79,121.6,23.5,328,25.74,382.08,2,-9,9,-9,0.05,16.96,65.43,28.44,228.38
AOML_Explorer,Ex0539E,276.149,3102005,3:34:25,25.975,-78.153,393.15,-9,1014.95,1010.93,28.73,29.17,36.143,2.03,84.19,31.52,1014.95,113.2,23.5,334,22.65,383.64,2,-9,9,-9,0.05,13.12,60.98,28.44,228.17
AOML_Explorer,Ex0539E,276.151,3102005,3:36:58,25.969,-78.135,392.52,-9,1014.84,1011.12,28.72,29.2,36.138,2.03,85.01,31.52,1014.84,106.3,23.4,341,25.22,383.45,2,-9,9,-9,0.05,14.48,70.01,28.42,228.03
AOML_Explorer,Ex0539E,276.152,3102005,3:39:31,25.964,-78.118,391.77,-9,1014.9,1010.76,28.75,29.22,36.139,2,84.17,31.52,1014.9,106.4,23.4,340,24.71,382.61,2,-9,9,-9,0.05,14.12,67.81,28.5,228.19
AOML_Explorer,Ex0539E,276.154,3102005,3:42:04,25.961,-78.1,391.52,-9,1014.86,1011.11,28.77,29.24,36.141,2.01,84.2,31.52,1014.86,98.9,23.3,341,25.74,382.35,2,-9,9,-9,0.05,15.1,62.26,28.54,228.24
AOML_Explorer,Ex0539E,276.156,3102005,3:44:37,25.96,-78.081,391.65,-9,1014.85,1011.04,28.78,29.24,36.147,2.01,83.73,31.52,1014.85,92,23.2,351,25.22,382.27,2,-9,9,-9,0.06,13.52,74.37,28.63,228.25
AOML_Explorer,Ex0539E,276.158,3102005,3:47:10,25.959,-78.063,391.89,-9,1014.95,1011.15,28.8,29.24,36.144,2,84.41,31.52,1014.95,93.9,23.2,345,25.22,382.17,2,-9,9,-9,0.06,14.1,64.88,28.59,228.31
AOML_Explorer,Ex0539E,276.16,3102005,3:49:43,25.958,-78.045,392.17,-9,1014.76,1010.82,28.81,29.23,36.146,2.02,83.62,31.52,1014.76,91.3,23.2,349,25.74,382.27,2,-9,9,-9,0.06,14.22,70.58,28.51,228.27
AOML_Explorer,Ex0539E,276.161,3102005,3:52:16,25.957,-78.027,392.11,-9,1014.83,1011.04,28.8,29.23,36.15,2.02,83.64,31.52,1014.83,92.8,23.1,347,24.71,382.32,2,-9,9,-9,0.05,13.43,67.39,28.48,228.15
AOML_Explorer,Ex0539E,276.163,3102005,3:54:49,25.957,-78.009,392.23,-9,1014.73,1011.15,28.8,29.21,36.147,2,83.12,31.52,1014.73,92.1,23.2,353,23.16,382.14,2,-9,9,-9,0.06,11.4,77.85,28.43,228.24
AOML_Explorer,Ex0539E,276.165,3102005,3:57:22,25.956,-77.99,392.23,-9,1014.79,1011.2,28.79,29.22,36.144,1.88,83.73,31.52,1014.79,92.4,23.1,346,22.13,382.4,2,-9,9,-9,0.06,11.01,62.57,28.48,228.14
AOML_Explorer,Ex0539E,276.167,3102005,3:59:55,25.955,-77.972,392.16,-9,1014.79,1010.89,28.74,29.2,36.149,2,83.15,31.52,1014.79,93,23.1,345,24.71,382.85,2,-9,9,-9,0.05,13.64,63.75,28.42,228.26
AOML_Explorer,Ex0539E,276.182,3102005,4:21:40,25.93,-77.822,391.09,-9,1014.69,1010.91,28.64,29.09,36.17,2.01,82.78,31.57,1014.69,103,22.8,344,23.68,381.58,2,-9,9,-9,0.05,12.89,70.99,28.34,228.16
AOML_Explorer,Ex0539E,276.183,3102005,4:24:13,25.926,-77.804,391.13,-9,1014.6,1010.63,28.65,29.12,36.187,2,82.68,31.57,1014.6,103.4,22.8,335,24.19,382.02,2,-9,9,-9,0.05,14.62,56.27,28.33,228.17
AOML_Explorer,Ex0539E,276.185,3102005,4:26:46,25.922,-77.787,391.28,-9,1014.43,1010.96,28.68,29.15,36.21,1.99,82.33,31.57,1014.43,103.4,22.7,334,24.19,382.01,2,-9,9,-9,0.06,14.8,55.04,28.34,228.17
AOML_Explorer,Ex0539E,276.187,3102005,4:29:19,25.918,-77.769,391.65,-9,1014.62,1010.77,28.71,29.11,36.219,1.99,82.05,31.57,1014.62,107.7,22.7,335,23.68,381.48,2,-9,9,-9,0.06,14.15,60.4,28.25,228.22
AOML_Explorer,Ex0539E,276.189,3102005,4:31:52,25.913,-77.752,393.25,-9,1014.35,1010.96,28.72,29.12,36.19,1.98,81.57,31.57,1014.35,107.6,22.7,329,23.16,383.02,2,-9,9,-9,0.06,14.7,49.99,28.26,228.36
AOML_Explorer,Ex0539E,276.191,3102005,4:34:25,25.908,-77.736,394.68,-9,1014.22,1010.64,28.7,29.15,36.183,1.97,81.85,31.57,1014.22,108.9,22.6,334,24.19,384.99,2,-9,9,-9,0.05,14.89,60.05,28.25,228.38
AOML_Explorer,Ex0539E,276.192,3102005,4:36:58,25.903,-77.719,394.98,-9,1014.34,1010.77,28.71,29.16,36.176,1.99,81.63,31.57,1014.34,109.7,22.7,335,21.62,385.3,2,-9,9,-9,0.05,12.35,57.88,28.21,228.22
AOML_Explorer,Ex0539E,276.194,3102005,4:39:31,25.897,-77.702,394.38,-9,1014.11,1010.94,28.73,29.16,36.174,2,81.5,31.57,1014.11,114.2,22.8,332,23.68,384.27,2,-9,9,-9,0.06,14.73,60.77,28.22,228.27
AOML_Explorer,Ex0539E,276.196,3102005,4:42:04,25.89,-77.686,393.73,-9,1014.13,1010.62,28.74,29.17,36.177,1.97,81.17,31.57,1014.13,117.5,23,324,22.65,383.68,2,-9,9,-9,0.06,15.11,51.42,28.26,228.21
AOML_Explorer,Ex0539E,276.198,3102005,4:44:37,25.882,-77.67,393.39,-9,1014.03,1010.56,28.74,29.2,36.168,1.96,81.51,31.57,1014.03,117.2,23.1,327,23.16,383.69,2,-9,9,-9,0.05,15.05,55.33,28.24,228.16
AOML_Explorer,Ex0539E,276.199,3102005,4:47:10,25.875,-77.653,393.08,-9,1014.21,1010.54,28.75,29.2,36.175,1.98,81.88,31.57,1014.21,116.9,23,325,24.19,383.34,2,-9,9,-9,0.06,16.27,54.75,28.22,228.23
AOML_Explorer,Ex0539E,276.201,3102005,4:49:43,25.868,-77.637,392.76,-9,1014.26,1010.63,28.77,29.2,36.177,1.98,81.74,31.57,1014.26,117,23,327,23.68,382.75,2,-9,9,-9,0.05,15.5,56.39,28.23,228.09
AOML_Explorer,Ex0539E,276.203,3102005,4:52:16,25.86,-77.621,392.99,-9,1014.17,1010.56,28.77,29.21,36.173,1.99,81.89,31.57,1014.17,114.3,22.9,331,22.65,383.05,2,-9,9,-9,0.05,13.97,57.18,28.24,228.03
AOML_Explorer,Ex0539E,276.205,3102005,4:54:49,25.853,-77.605,393.09,-9,1014.12,1010.79,28.77,29.22,36.165,2,81.78,31.57,1014.12,115,22.9,331,21.62,383.29,2,-9,9,-9,0.05,13.04,55.97,28.21,228.06
AOML_Explorer,Ex0539E,276.207,3102005,4:57:22,25.847,-77.588,392.99,-9,1013.89,1010.81,28.78,29.23,36.171,1.98,81.28,31.57,1013.89,115.1,22.9,326,22.13,383.08,2,-9,9,-9,0.05,14.38,50.25,28.18,228.13
AOML_Explorer,Ex0539E,276.208,3102005,4:59:55,25.84,-77.572,392.72,-9,1013.93,1010.9,28.79,29.23,36.181,1.98,81.08,31.57,1013.93,114.9,22.8,332,22.65,382.7,2,-9,9,-9,0.05,13.78,59.82,28.24,228.03
AOML_Explorer,Ex0539E,276.223,3102005,5:21:40,25.787,-77.432,395.23,-9,1013.67,1010.64,28.68,29.13,36.36,1.97,83.64,31.63,1013.67,108.7,22.2,334,22.65,385.27,2,-9,9,-9,0.05,13.67,57.59,28.44,227.79
AOML_Explorer,Ex0539E,276.225,3102005,5:24:13,25.783,-77.415,397.04,-9,1013.65,1010.15,28.71,29.15,36.36,1.94,83.77,31.63,1013.65,105.8,22.1,340,24.19,386.86,2,-9,9,-9,0.05,14.19,67.12,28.45,227.78
AOML_Explorer,Ex0539E,276.227,3102005,5:26:46,25.778,-77.398,397.99,-9,1013.62,1010.31,28.72,29.16,36.371,1.92,83.61,31.63,1013.62,106.4,22.1,341,23.16,387.82,2,-9,9,-9,0.06,13.14,68.05,28.39,227.79
AOML_Explorer,Ex0539E,276.229,3102005,5:29:19,25.774,-77.382,398.06,-9,1014.14,1009.96,28.73,29.14,36.365,1.93,83.85,31.63,1014.14,104.1,22,332,24.19,387.65,2,-9,9,-9,0.06,15.52,52.02,28.31,227.56
AOML_Explorer,Ex0539E,276.23,3102005,5:31:52,25.771,-77.365,398.99,-9,1014.22,1010.31,28.73,29.13,36.366,1.93,84.13,31.63,1014.22,101.5,22.1,338,23.68,388.42,2,-9,9,-9,0.06,14.03,58.68,28.3,227.46
AOML_Explorer,Ex0539E,276.232,3102005,5:34:25,25.768,-77.348,399.84,-9,1014.21,1010.3,28.72,29.13,36.362,1.92,84.7,31.63,1014.21,97.4,22.1,341,24.71,389.36,2,-9,9,-9,0.06,14.63,60.73,28.3,227.48
AOML_Explorer,Ex0539E,276.234,3102005,5:36:58,25.767,-77.33,400.29,-9,1014.03,1010.37,28.71,29.1,36.356,1.93,84.33,31.63,1014.03,97.1,22.1,338,22.13,389.45,2,-9,9,-9,0.06,12.5,52.89,28.28,227.5
AOML_Explorer,Ex0539E,276.236,3102005,5:39:31,25.765,-77.313,400.28,-9,1014.12,1009.92,28.67,29.11,36.351,1.96,84.14,31.64,1014.12,98.2,22.2,340,23.68,390.26,2,-9,9,-9,0.05,13.7,58.77,28.25,227.65
AOML_Explorer,Ex0539E,276.238,3102005,5:42:04,25.763,-77.296,400.12,-9,1014.1,1010.2,28.66,29.14,36.368,1.91,84.03,31.64,1014.1,96.5,22.1,336,22.65,390.57,2,-9,9,-9,0.05,13.34,49.15,28.26,227.85
AOML_Explorer,Ex0539E,276.239,3102005,5:44:37,25.761,-77.279,399.79,-9,1014.16,1010.17,28.71,29.15,36.379,1.94,83.62,31.64,1014.16,96.5,22.1,340,24.19,389.78,2,-9,9,-9,0.05,14.3,57.14,28.32,228.23
AOML_Explorer,Ex0539E,276.241,3102005,5:47:10,25.759,-77.261,399.79,-9,1014.13,1010.55,28.73,29.15,36.379,1.92,84,31.65,1014.13,96.3,22.1,340,21.1,389.34,2,-9,9,-9,0.05,11.37,52.41,28.3,228.23
AOML_Explorer,Ex0539E,276.243,3102005,5:49:43,25.757,-77.244,399.11,-9,1014.13,1009.97,28.74,29.14,36.389,1.92,83.23,31.65,1014.13,96.7,22.2,341,23.68,388.53,2,-9,9,-9,0.05,13.62,57.81,28.26,228.26
AOML_Explorer,Ex0539E,276.245,3102005,5:52:16,25.756,-77.227,398.51,-9,1013.99,1010.34,28.73,29.14,36.379,1.94,83.73,31.65,1013.99,96.5,22.3,340,23.16,387.96,2,-9,9,-9,0.05,13.2,55.91,28.25,228.49
AOML_Explorer,Ex0539E,276.246,3102005,5:54:49,25.754,-77.209,398.26,-9,1014.09,1010.07,28.73,29.13,36.378,1.93,83.71,31.66,1014.09,96.8,22.2,340,21.62,387.77,2,-9,9,-9,0.05,11.83,53.46,28.27,228.4
AOML_Explorer,Ex0539E,276.248,3102005,5:57:22,25.752,-77.192,398.08,-9,1013.9,1010.12,28.72,29.13,36.361,1.94,83.67,31.66,1013.9,98.9,22.4,336,23.16,387.49,2,-9,9,-9,0.05,13.64,52.63,28.21,228.26
AOML_Explorer,Ex0539E,276.25,3102005,5:59:55,25.75,-77.175,397.75,-9,1013.84,1009.8,28.71,29.13,36.359,1.93,83.85,31.67,1013.84,97.3,22.3,339,23.16,387.26,2,-9,9,-9,0.05,13.35,54.91,28.22,228.43
AOML_Explorer,Ex0539E,276.262,3102005,6:16:34,25.739,-77.061,396.52,-9,1013.6,1009.7,28.74,29.17,36.355,1.92,83.18,31.76,1013.6,96.5,22.5,332,22.65,386.17,2,-9,9,-9,0.05,13.79,42.65,28.16,228.55
AOML_Explorer,Ex0539E,276.263,3102005,6:19:07,25.737,-77.043,397.21,-9,1013.55,1009.51,28.74,29.16,36.358,1.9,83.13,31.77,1013.55,96.4,22.5,335,22.65,386.67,2,-9,9,-9,0.06,13.32,47.18,28.19,228.84
AOML_Explorer,Ex0539E,276.265,3102005,6:21:40,25.735,-77.026,397.47,-9,1013.6,1009.44,28.74,29.17,36.349,1.87,83.64,31.78,1013.6,96.2,22.5,332,23.16,387.05,2,-9,9,-9,0.05,14.35,42.42,28.27,228.59
AOML_Explorer,Ex0539E,276.267,3102005,6:24:13,25.733,-77.008,397.75,-9,1013.66,1009.63,28.74,29.15,36.363,1.91,84.09,31.78,1013.66,97.1,22.5,335,21.62,387.13,2,-9,9,-9,0.05,12.44,45.3,28.27,228.54
AOML_Explorer,Ex0539E,276.269,3102005,6:26:46,25.731,-76.991,397.82,-9,1013.7,1009.34,28.75,29.17,36.367,1.87,84.2,31.79,1013.7,96.5,22.6,336,22.65,387.27,2,-9,9,-9,0.05,13.16,48.85,28.27,228.23
AOML_Explorer,Ex0539E,276.27,3102005,6:29:19,25.73,-76.973,397.98,-9,1013.53,1009.65,28.75,29.18,36.377,1.91,83.45,31.8,1013.53,95.9,22.5,337,23.68,387.58,2,-9,9,-9,0.05,14.01,51.05,28.27,228.34
AOML_Explorer,Ex0539E,276.272,3102005,6:31:52,25.728,-76.956,398.05,-9,1013.53,1009.71,28.76,29.18,36.381,1.93,83.44,31.81,1013.53,96.1,22.5,337,23.16,387.48,2,-9,9,-9,0.05,13.53,50.62,28.25,228.09
AOML_Explorer,Ex0539E,276.274,3102005,6:34:25,25.726,-76.938,398.04,-9,1013.48,1009.67,28.76,29.17,36.371,1.9,83.5,31.82,1013.48,96.7,22.6,334,22.65,387.21,2,-9,9,-9,0.05,13.48,45.27,28.27,228.17
AOML_Explorer,Ex0539E,276.276,3102005,6:36:58,25.724,-76.921,398.28,-9,1013.34,1009.24,28.75,29.15,36.366,1.92,83.46,31.83,1013.34,97,22.5,329,24.19,387.34,2,-9,9,-9,0.05,15.72,40.64,28.24,228.21
AOML_Explorer,Ex0539E,276.277,3102005,6:39:31,25.722,-76.903,398.3,-9,1013.37,1009.55,28.75,29.14,36.36,1.92,83.26,31.84,1013.37,96.5,22.5,333,21.62,387.24,2,-9,9,-9,0.05,12.7,42.13,28.33,228.32
AOML_Explorer,Ex0539E,276.279,3102005,6:42:04,25.72,-76.886,398.28,-9,1013.26,1009.5,28.74,29.11,36.348,1.91,83.91,31.85,1013.26,96.2,22.6,336,22.13,387.01,2,-9,9,-9,0.06,12.68,47.25,28.26,228.4
AOML_Explorer,Ex0539E,276.281,3102005,6:44:37,25.719,-76.868,398.46,-9,1013.13,1009.77,28.73,29.1,36.34,1.89,83.1,31.86,1013.13,96.9,22.7,331,23.68,387.19,2,-9,9,-9,0.06,15,41.93,28.2,228.53
AOML_Explorer,Ex0539E,276.283,3102005,6:47:10,25.717,-76.85,398.84,-9,1012.96,1008.59,28.71,29.07,36.351,1.89,83.36,31.87,1012.96,96.6,22.6,324,24.19,387.25,2,-9,9,-9,0.05,16.73,32.51,28.15,228.55
AOML_Explorer,Ex0539E,276.285,3102005,6:49:43,25.715,-76.833,398.86,-9,1012.87,1008.91,28.69,29.14,36.448,1.9,83.09,31.88,1012.87,97,22.5,326,24.19,388.53,2,-9,9,-9,0.05,16.42,35.53,28.07,228.28
AOML_Explorer,Ex0539E,276.286,3102005,6:52:16,25.713,-76.815,398.99,-9,1012.85,1008.75,28.68,29.12,36.465,1.9,82.46,31.89,1012.85,96.3,22.5,325,24.19,388.55,2,-9,9,-9,0.05,16.53,33.85,27.93,228.5
AOML_Explorer,Ex0539E,276.288,3102005,6:54:49,25.711,-76.798,400.27,-9,1012.41,1009.11,28.71,29.12,36.464,1.88,82.59,31.89,1012.41,96.6,22.6,325,24.19,389.03,2,-9,9,-9,0.05,16.49,34.25,27.8,228.56
AOML_Explorer,Ex0539E,276.29,3102005,6:57:22,25.71,-76.78,401.5,-9,1012.3,1008.92,28.72,29.09,36.46,1.94,83.39,31.9,1012.3,96.7,22.6,327,23.16,389.7,2,-9,9,-9,0.05,15.3,34.78,27.7,228.5
AOML_Explorer,Ex0539E,276.292,3102005,6:59:55,25.708,-76.763,401.78,-9,1012.35,1008.7,28.71,29.07,36.45,1.88,82.34,31.91,1012.35,96.9,22.6,330,24.19,389.87,2,-9,9,-9,0.05,15.68,40.9,27.77,228.29
AOML_Explorer,Ex0539E,276.303,3102005,7:16:34,25.696,-76.649,401.64,-9,1011.86,1008.96,28.58,28.99,36.435,1.93,82.88,32.01,1011.86,96.5,22.2,329,22.13,390.32,2,-9,9,-9,0.04,13.81,38.69,27.65,228.9
AOML_Explorer,Ex0539E,276.305,3102005,7:19:07,25.695,-76.632,401.76,-9,1011.88,1008.41,28.58,29.01,36.446,1.9,83.08,32.02,1011.88,97,22.1,331,22.65,390.76,2,-9,9,-9,0.04,14.08,42.36,27.7,228.92
AOML_Explorer,Ex0539E,276.307,3102005,7:21:40,25.693,-76.614,401.99,-9,1011.86,1008.7,28.6,29.06,36.458,1.81,82.59,32.03,1011.86,96.8,22.1,331,22.13,391.28,2,-9,9,-9,0.05,13.63,41.02,27.63,228.8
AOML_Explorer,Ex0539E,276.308,3102005,7:24:13,25.691,-76.597,402.08,-9,1011.72,1008.31,28.58,29.11,36.473,1.91,83.14,32.04,1011.72,96.9,22.2,324,23.16,392.24,2,-9,9,-9,0.04,15.75,32.89,27.67,228.75
AOML_Explorer,Ex0539E,276.31,3102005,7:26:46,25.689,-76.58,401.85,-9,1011.63,1008.48,28.66,29.13,36.49,1.9,82.64,32.05,1011.63,97.4,22.3,328,23.68,391.24,2,-9,9,-9,0.04,15.48,39.59,27.63,228.83
AOML_Explorer,Ex0539E,276.312,3102005,7:29:19,25.687,-76.562,402.28,-9,1011.83,1008.94,28.7,29.15,36.506,1.89,83.06,32.06,1011.83,96.6,22.4,326,22.13,391.37,2,-9,9,-9,0.05,14.28,34.19,27.65,228.68
AOML_Explorer,Ex0539E,276.314,3102005,7:31:52,25.686,-76.545,402.63,-9,1011.82,1008.57,28.73,29.17,36.518,1.9,82.71,32.06,1011.82,96.3,22.4,333,22.65,391.58,2,-9,9,-9,0.04,13.56,45.15,27.7,228.92
AOML_Explorer,Ex0539E,276.316,3102005,7:34:25,25.684,-76.528,402.7,-9,1011.93,1008.25,28.75,29.18,36.529,1.86,82.86,32.07,1011.93,96.5,22.5,330,23.16,391.52,2,-9,9,-9,0.05,14.52,41.35,27.88,228.67
AOML_Explorer,Ex0539E,276.317,3102005,7:36:58,25.682,-76.51,403.1,-9,1011.8,1008.44,28.76,29.23,36.541,1.91,83.32,32.08,1011.8,96.6,22.5,330,21.62,392.29,2,-9,9,-9,0.04,13.08,38.63,28.01,228.64
AOML_Explorer,Ex0539E,276.319,3102005,7:39:31,25.68,-76.493,403.24,-9,1011.86,1008.21,28.78,29.23,36.562,1.92,82.75,32.08,1011.86,96.3,22.5,330,23.16,392.31,2,-9,9,-9,0.04,14.49,41.49,28.07,228.68
AOML_Explorer,Ex0539E,276.321,3102005,7:42:04,25.678,-76.475,403.25,-9,1011.94,1008.49,28.81,29.25,36.573,1.89,82.54,32.09,1011.94,96.3,22.5,330,23.68,392.17,2,-9,9,-9,0.04,14.96,42.11,27.99,228.55
AOML_Explorer,Ex0539E,276.323,3102005,7:44:37,25.677,-76.458,402.9,-9,1011.94,1008.54,28.82,29.26,36.58,1.9,82.72,32.09,1011.94,96.3,22.4,327,22.65,391.84,2,-9,9,-9,0.04,14.63,35.8,27.92,228.52
AOML_Explorer,Ex0539E,276.324,3102005,7:47:10,25.675,-76.44,402.83,-9,1011.96,1008.58,28.83,29.25,36.581,1.93,82.89,32.09,1011.96,96.5,22.5,329,23.68,391.46,2,-9,9,-9,0.04,15.14,40.72,27.93,228.44
AOML_Explorer,Ex0539E,276.326,3102005,7:49:43,25.673,-76.423,403.16,-9,1011.7,1008.26,28.85,29.22,36.546,1.94,82.69,32.1,1011.7,96.4,22.4,328,24.71,391.01,2,-9,9,-9,0.05,16.25,40.98,27.96,228.43
AOML_Explorer,Ex0539E,276.328,3102005,7:52:16,25.671,-76.406,403.09,-9,1011.7,1008.54,28.83,29.18,36.509,1.88,83.11,32.1,1011.7,96.2,22.3,324,23.16,390.59,2,-9,9,-9,0.04,15.73,32.47,27.82,228.52
AOML_Explorer,Ex0539E,276.33,3102005,7:54:49,25.669,-76.388,402.13,-9,1011.69,1008.15,28.79,29.21,36.508,1.9,83.46,32.11,1011.69,99.2,22.2,326,24.71,390.66,2,-9,9,-9,0.05,16.68,41.11,27.81,228.89
AOML_Explorer,Ex0539E,276.332,3102005,7:57:22,25.666,-76.371,400.95,-9,1011.58,1008.26,28.77,29.3,36.635,1.89,83.11,32.11,1011.58,106,22.2,319,24.19,391.12,2,-9,9,-9,0.04,17.47,38.01,27.73,228.26
AOML_Explorer,Ex0539E,276.333,3102005,7:59:55,25.66,-76.355,400.87,-9,1011.4,1007.65,28.85,29.29,36.643,1.89,83.52,32.12,1011.4,117.8,22.2,315,22.65,389.62,2,-9,9,-9,0.04,16.99,41.75,27.7,228.41